[[{"header":{"parameterUnit":"m.s-1","parameterCategory":1,"la1":30.2991,"la2":30.254,"lo1":-89.0895,"lo2":-89.0444,"dy":0.0017,"dx":0.0017,"nx":28,"ny":28,"refTime":"2024-02-29T09:00:00:Z","depth":0,"parameterNumber":2,"parameterNumberName":"U-component_of_WINDS"},"data":[0,0,0,0,0,0,0,0,0,0,0,0,0,0,0,0,0,0,0,0,0,0,0,0,0,0,0,0,0,0,0,0,0,0,0,0,0,0,0,0,0,0,0,0,0,0,0,0,0,0,0,0,0,0,0,0,0,0,2.1086,2.1085,0,2.0996,2.0995,2.0994,2.0888,2.0886,2.0884,2.0883,2.0788,2.0787,2.0786,0,0,0,0,0,0,0,0,0,0,0,0,0,2.1166,2.1165,2.1086,2.1085,2.1084,2.0996,2.0995,2.0994,2.0888,2.0886,2.0884,2.0882,2.0788,2.0787,2.0786,0,0,0,0,0,0,0,0,0,0,0,0,0,2.1109,2.1165,2.1087,2.1021,2.1014,2.0997,2.0995,2.0993,2.0888,2.0886,2.0883,2.0881,2.0789,2.0787,2.0786,2.0825,0,0,2.0781,2.078,0,0,0,0,0,0,0,0,2.1113,2.1107,2.1032,2.1025,2.1018,2.0951,2.0988,2.0937,2.0889,2.0936,2.0883,2.088,2.0844,2.0838,2.0826,2.082,2.0816,2.0781,2.078,2.0779,2.0779,0,0,0,0,0,0,0,2.1117,2.111,2.105,2.1031,2.1022,2.0996,2.0985,2.0978,2.0905,2.0932,2.0924,2.0915,2.084,2.0828,2.0823,2.0815,2.0781,2.078,2.0779,2.0778,2.084,2.0842,0,0,0,0,0,0,2.1131,2.1114,2.1053,2.1048,2.106,2.0996,2.0984,2.0975,2.0904,2.0891,2.0917,2.091,2.0831,2.0825,2.0819,2.0862,2.0779,2.0778,2.0777,2.0837,2.084,2.0843,0,0,0,0,0,0,2.1133,2.1127,2.1057,2.1079,2.1068,2.0997,2.0988,2.0974,2.0962,2.0893,2.0879,2.0918,2.0829,2.0821,2.0825,2.0857,2.0777,2.0776,2.0834,2.0838,2.0842,2.0948,0,0,0,0,0,0,2.1136,2.1128,2.1142,2.108,2.1067,2.1065,2.0989,2.0974,2.096,2.095,2.0891,2.0879,2.0827,2.0828,2.0824,2.0854,2.0775,2.0831,2.0836,2.084,2.0941,2.0955,2.0967,0,0,0,0,0,2.1139,2.1174,2.1143,2.1137,2.1083,2.1067,2.106,2.1,2.0963,2.0977,2.0933,2.0881,2.0855,2.0829,2.0823,2.0854,2.0829,2.0834,2.084,2.0936,2.0952,2.0967,0,0,0,0,0,0,2.1241,2.1165,2.113,2.1146,2.1114,2.1049,2.1064,2.1019,2.0996,2.0988,2.0914,2.0901,2.0915,2.0884,2.0857,2.0889,2.0834,2.0839,2.0909,2.0924,2.0937,2.0944,2.0773,0,0,0,0,0,2.1265,2.1259,2.1193,2.1214,2.1199,2.1135,2.1126,2.1083,2.1046,2.1032,2.0988,2.0954,2.0938,2.0929,2.0911,2.0937,2.0923,2.0955,2.0968,2.0978,2.0984,2.0997,2.1011,2.0862,2.0862,2.0862,0,0,2.1315,2.1273,2.1273,2.1233,2.1203,2.1198,2.1124,2.1121,2.1117,2.1031,2.1033,2.1,2.0957,2.0973,2.0977,2.0948,2.1022,2.0986,2.0995,2.0994,2.1005,2.1019,2.1032,2.0866,2.0865,2.0864,0,0,2.1405,2.1372,2.1387,2.1359,2.1316,2.1273,2.1277,2.1219,2.1195,2.1196,2.1132,2.1125,2.1099,2.1072,2.1055,2.1138,2.109,2.1134,2.1201,2.1215,2.1227,2.1237,2.1268,2.128,2.1139,2.1139,2.114,0,2.1472,2.1463,2.14,2.1402,2.1387,2.1311,2.1326,2.1302,2.1254,2.1245,2.1213,2.1181,2.1147,2.1156,2.1177,2.1165,2.1168,2.114,2.123,2.124,2.1248,2.1277,2.1289,2.1145,2.1145,2.1144,2.1143,0,2.1549,2.1544,2.1561,2.152,2.1506,2.1515,2.1454,2.1448,2.1407,2.1368,2.1371,2.1328,2.13,2.1299,2.1258,2.1304,2.1287,2.1244,2.1187,2.127,2.1296,2.1306,2.1154,2.1152,2.115,2.1148,0,0,2.1699,2.1624,2.1632,2.1613,2.1561,2.1555,2.1561,2.1536,2.1533,2.1503,2.1507,2.1489,2.1449,2.143,2.1386,2.1398,2.1469,2.1353,2.1351,2.1378,2.152,2.1554,2.1567,2.1437,2.1439,2.144,2.1524,0,2.178,2.1787,2.1731,2.1753,2.1748,2.1677,2.1682,2.1651,2.1616,2.1607,2.1566,2.1556,2.1503,2.1492,2.1501,2.1459,2.1497,2.1452,2.1441,2.1441,2.1455,2.1581,2.1616,2.1697,2.1533,2.1535,2.1536,0,2.1874,2.1853,2.1875,2.1824,2.182,2.1826,2.18,2.1792,2.1755,2.1729,2.1709,2.1659,2.1662,2.1608,2.1612,2.1583,2.1575,2.1554,2.1556,2.1553,2.1494,2.1583,2.172,2.1734,2.1551,2.155,2.1549,0,2.1984,2.196,2.197,2.1956,2.1896,2.1903,2.1878,2.184,2.1829,2.1806,2.1799,2.1776,2.1764,2.1748,2.1693,2.1659,2.1704,2.1645,2.1683,2.1685,2.1696,2.1696,2.1836,2.169,2.1689,2.1689,2.1689,0,2.208,2.2097,2.2019,2.2026,2.2043,2.1979,2.1998,2.1966,2.1933,2.1933,2.1869,2.187,2.1798,2.1791,2.1748,2.1759,2.1753,2.1733,2.1721,2.1739,2.1742,2.1733,2.1727,2.1692,2.1692,2.1691,2.1691,0,2.2205,2.2153,2.2161,2.2105,2.2091,2.2107,2.2059,2.2063,2.2024,2.2025,2.2021,2.1961,2.195,2.1894,2.1869,2.1841,2.1867,2.1843,2.188,2.1873,2.1914,2.1912,2.2054,2.207,2.1913,2.1915,2.1916,0,2.2271,2.2282,2.2229,2.2225,2.2204,2.2197,2.2187,2.2126,2.2117,2.2079,2.2088,2.2072,2.2056,2.2042,2.1996,2.1977,2.1954,2.2005,2.195,2.1969,2.1956,2.1957,2.1959,2.2017,2.2019,2.2021,2.2022,0,2.2393,2.2368,2.2356,2.2336,2.2326,2.2306,2.2283,2.2283,2.2215,2.221,2.2199,2.2187,2.2163,2.2149,2.2123,2.2097,2.2049,2.204,2.2048,2.2066,2.2088,2.2079,2.1913,2.2037,2.2035,2.2034,2.2033,2.2033,2.2491,2.2499,2.2464,2.2453,2.243,2.2411,2.2413,2.2376,2.2365,2.2342,2.2306,2.2301,2.2266,2.2227,2.2206,2.2201,2.2173,2.2184,2.2187,2.2191,2.2201,2.2089,2.2196,2.2195,2.2195,2.2194,2.2194,0,2.2612,2.2586,2.2577,2.2548,2.254,2.2497,2.247,2.2466,2.2462,2.2435,2.2421,2.241,2.2396,2.235,2.2332,2.2337,2.2315,2.2335,2.2334,2.2329,2.2226,2.2222,2.2353,2.2353,2.2353,2.2353,2.2353,2.2353,2.2674,2.2686,2.2657,2.2657,2.2631,2.2626,2.2615,2.2597,2.2575,2.2566,2.2555,2.2525,2.2491,2.247,2.2456,2.2443,2.244,2.2467,2.2447,2.2352,2.2336,2.2322,2.2317,2.2467,2.2467,2.2551,2.2552,2.2552]},{"header":{"parameterUnit":"m.s-1","parameterCategory":1,"la1":30.2991,"la2":30.254,"lo1":-89.0895,"lo2":-89.0444,"dy":0.0017,"dx":0.0017,"nx":28,"ny":28,"refTime":"2024-02-29T09:00:00:Z","depth":0,"parameterNumber":3,"parameterNumberName":"V-component_of_WINDS"},"data":[0,0,0,0,0,0,0,0,0,0,0,0,0,0,0,0,0,0,0,0,0,0,0,0,0,0,0,0,0,0,0,0,0,0,0,0,0,0,0,0,0,0,0,0,0,0,0,0,0,0,0,0,0,0,0,0,0,0,1.846,1.8466,0,1.9051,1.9058,1.9064,1.9247,1.9245,1.9242,1.9239,1.9846,1.9865,1.9883,0,0,0,0,0,0,0,0,0,0,0,0,0,1.7489,1.7506,1.8459,1.8467,1.8474,1.905,1.9058,1.9066,1.9248,1.9244,1.9241,1.9238,1.984,1.9862,1.9885,0,0,0,0,0,0,0,0,0,0,0,0,0,1.7978,1.7512,1.8458,1.8634,1.8656,1.9048,1.9058,1.9068,1.9249,1.9244,1.924,1.9236,1.9833,1.986,1.9888,2.0148,0,0,1.9974,1.9987,0,0,0,0,0,0,0,0,1.795,1.8014,1.8601,1.8623,1.8648,1.9071,1.8939,1.943,1.925,1.9024,1.9239,1.9234,1.9592,1.964,1.976,2.0177,2.0203,1.9977,1.9994,2.0006,2.0014,0,0,0,0,0,0,0,1.7916,1.7989,1.8694,1.8609,1.8638,1.8684,1.8749,1.9033,1.9325,1.9043,1.9058,1.9125,1.9604,1.9732,1.9776,2.0212,1.9976,2.0001,2.0019,2.003,2.0871,2.0877,0,0,0,0,0,0,1.7852,1.796,1.8675,1.8711,1.8281,1.8705,1.8778,1.894,1.9322,1.9376,1.9128,1.9131,1.9686,1.9743,1.9798,2.0129,2.0006,2.0033,2.0049,2.0866,2.0873,2.0878,0,0,0,0,0,0,1.7831,1.7914,1.8651,1.834,1.8437,1.8726,1.8907,1.8953,1.9082,1.9386,1.9439,1.9206,1.9685,1.9758,2.006,2.0152,2.0045,2.0071,2.086,2.0868,2.0876,2.079,0,0,0,0,0,0,1.7802,1.7906,1.8007,1.8341,1.8453,1.8902,1.8913,1.8968,1.913,1.914,1.9473,1.9524,1.9687,2.0016,2.0088,2.0189,2.0093,2.0853,2.0863,2.0873,2.0786,2.0794,2.0801,0,0,0,0,0,1.7767,1.796,1.8012,1.8097,1.8586,1.8907,1.8972,1.9155,1.9137,1.9242,1.9437,1.9514,2.0129,2.0046,2.0128,2.0239,2.0848,2.086,2.0872,2.0783,2.0793,2.0801,0,0,0,0,0,0,1.7631,1.8007,1.8068,1.8375,1.8608,1.8937,1.9076,1.9159,1.9403,1.9402,1.9619,1.9693,1.9978,2.0139,2.0039,2.051,2.0492,2.0521,2.0396,2.0408,2.0415,2.0371,2.0117,0,0,0,0,0,1.7636,1.7865,1.8182,1.8422,1.8536,1.8784,1.8932,1.9052,1.9302,1.9402,1.9619,1.9859,2.0107,2.0266,2.0511,2.0809,2.0885,2.0926,2.0933,2.0938,2.0961,2.1131,2.1153,2.0918,2.0918,2.0918,0,0,1.7651,1.7885,1.8016,1.8401,1.8595,1.8828,1.8867,1.9111,1.9286,1.944,1.9738,1.9905,2.0187,2.0488,2.0631,2.063,2.1042,2.0953,2.0955,2.0977,2.1146,2.1168,2.1187,2.0927,2.0925,2.0924,0,0,1.7797,1.7996,1.8218,1.8412,1.8705,1.8869,1.8921,1.924,1.9356,1.9659,1.9778,1.9989,2.0411,2.0607,2.0762,2.0979,2.1059,2.1052,2.1093,2.1256,2.1275,2.1292,2.137,2.1396,2.1074,2.1074,2.1074,0,1.7778,1.8133,1.8322,1.8561,1.8726,1.8874,1.9101,1.9279,1.9637,1.9748,1.9741,2.0274,2.0474,2.0823,2.0875,2.0995,2.1063,2.1017,2.1256,2.1276,2.1295,2.1372,2.1401,2.1071,2.1071,2.1072,2.1072,0,1.8096,1.834,1.8484,1.8825,1.9007,1.9238,1.9462,1.9623,1.9726,1.9891,2.0196,2.0441,2.0738,2.0829,2.0934,2.1194,2.1184,2.1213,2.12,2.1312,2.1388,2.1419,2.1067,2.1068,2.1069,2.107,0,0,1.8175,1.8616,1.8666,1.8823,1.9156,1.9349,1.9585,1.9875,2.0009,2.025,2.0455,2.0808,2.0837,2.1013,2.114,2.1282,2.1439,2.1296,2.1306,2.1315,2.1741,2.1717,2.1749,2.1493,2.1499,2.1504,2.1718,0,1.8364,1.8795,1.8971,1.9319,1.9547,1.9689,1.9896,2.0122,2.0282,2.0498,2.0675,2.0922,2.0941,2.1048,2.1195,2.1388,2.1528,2.1375,2.1687,2.1696,2.1614,2.1789,2.1766,2.1955,2.1748,2.1754,2.1757,0,1.8644,1.8886,1.9256,1.9561,1.9664,1.9846,2.0125,2.033,2.059,2.0696,2.089,2.1009,2.1263,2.123,2.1584,2.1476,2.1613,2.1727,2.1739,2.1777,2.1735,2.1833,2.202,2.2049,2.1806,2.1802,2.1799,0,1.8666,1.9084,1.9361,1.949,1.9852,1.9977,2.0134,2.0389,2.0551,2.0795,2.0902,2.1171,2.132,2.1525,2.1714,2.1672,2.205,2.2032,2.2146,2.2141,2.2222,2.2215,2.2435,2.2306,2.2305,2.2305,2.2304,0,1.886,1.9081,1.9375,1.9545,1.9797,1.9996,2.0241,2.0407,2.0632,2.0837,2.0976,2.1165,2.1401,2.1621,2.1769,2.204,2.2105,2.2199,2.2236,2.2188,2.2176,2.2283,2.2275,2.2313,2.2311,2.2309,2.2308,0,1.8929,1.9134,1.9445,1.9761,1.9846,2.0018,2.0289,2.046,2.0623,2.0881,2.0953,2.1212,2.1477,2.1684,2.203,2.213,2.2416,2.2456,2.2328,2.2348,2.245,2.2438,2.275,2.2801,2.2633,2.2634,2.2635,0,1.904,1.9214,1.9548,1.9695,1.985,2.0085,2.0251,2.0453,2.062,2.0928,2.1061,2.1335,2.1567,2.1983,2.2203,2.2467,2.2516,2.2607,2.2557,2.2503,2.252,2.2508,2.2527,2.2613,2.2614,2.2615,2.2615,0,1.9217,1.9309,1.9543,1.9812,2.0006,2.0228,2.0453,2.0565,2.0808,2.0988,2.1261,2.1439,2.1792,2.2063,2.235,2.2512,2.2605,2.2628,2.2669,2.2623,2.2543,2.2589,2.2346,2.2621,2.2621,2.262,2.262,2.262,1.9313,1.9473,1.9734,1.9989,2.0179,2.0385,2.0561,2.0747,2.0977,2.128,2.1384,2.1665,2.1919,2.2314,2.2477,2.27,2.2705,2.2764,2.2779,2.2791,2.2787,2.2504,2.2753,2.2753,2.2753,2.2753,2.2753,0,1.9497,1.9671,1.9904,2.0214,2.0415,2.0482,2.0734,2.0898,2.1143,2.1372,2.1595,2.1908,2.2171,2.2409,2.2684,2.2816,2.2865,2.2881,2.2875,2.2911,2.2766,2.2704,2.2837,2.2837,2.2837,2.2837,2.2837,2.2837,1.9617,1.9894,2.0016,2.0387,2.0561,2.0836,2.0974,2.1165,2.1349,2.1692,2.1911,2.2064,2.2298,2.2589,2.2834,2.2897,2.2993,2.2998,2.3072,2.2932,2.2921,2.2911,2.2854,2.3016,2.3017,2.32,2.3202,2.3203]}]]